Content
SEND FEEDBACK

Daily
Averages
Monthly
Summary
United States of America

WALNUT GROVE, ALABAMA


Home > North America > United States > Alabama
Elevation: 85 feet     Latitude: 34 04N     Longitude: 086 19W

WEATHER
 
SELECT A DAY
Number of Records: 213,034;   Date Range: 3/15/06 - 11/24/14
 
SHARE

PRINT THIS DATA

[ ← Previous Day ]
WEATHER ALMANAC - JULY 30, 2014
[ Next Day → ]
[ °C ]   °F
Weather ElementAverageHighLow
Temperature68 °F78.8 °F (9:15 am)53.6 °F (4:15 am)
Dewpoint60.5 °F64.4 °F (12:35 am)53.6 °F (4:15 am)
Humidity79.3 %100 % (4:15 am)51 % (10:55 am)
Barometer30.08 in30.11 in (1:15 am)30.07 in (12:15 am)
Wind Speed3.6 mph10.4 mph (11:35 am)
Weather ElementAverage
Visibility9.7 mi
Wind DirectionENE (55.7 °)

Weather ElementTotal
Precipitation---
Cooling Degree Days1.2 (Base 65)
Growing Degree Days16.2 (Base 50)
Averaged from 69 records on July 30, 2014
WEATHER CONDITIONS BREAKOUT
WIND DIRECTION BREAKOUT
WEATHER BY HOUR - JULY 30, 2014
[ °C ]   °F
Local TimeTemperatureDewpointHumidityBarometerVisibilityWind DirectionWind SpeedGust SpeedPrecipitationEventsConditions
12:35 AM59.0 °F59.0 °F100 %30.09 in10.0 miCalmClear
12:55 AM59.0 °F59.0 °F100 %30.08 in10.0 miCalmClear
1:15 AM59.0 °F59.0 °F100 %30.08 in10.0 miCalmClear
1:35 AM57.2 °F57.2 °F100 %30.08 in10.0 miCalmClear
1:55 AM57.2 °F57.2 °F100 %30.08 in10.0 miCalmClear
2:15 AM55.4 °F55.4 °F100 %30.07 in10.0 miNorth (350°)3.5 mphClear
2:35 AM55.4 °F55.4 °F100 %30.07 in10.0 miCalmClear
3:15 AM55.4 °F55.4 °F100 %30.08 in10.0 miCalmClear
3:35 AM55.4 °F55.4 °F100 %30.07 in10.0 miCalmClear
3:55 AM55.4 °F55.4 °F100 %30.07 in10.0 miCalmClear
4:15 AM53.6 °F53.6 °F100 %30.07 in7.0 miCalmClear
4:35 AM55.4 °F55.4 °F100 %30.07 in7.0 miCalmClear
4:55 AM55.4 °F55.4 °F100 %30.08 in7.0 miCalmClear
5:15 AM55.4 °F55.4 °F100 %30.08 in7.0 miCalmClear
5:35 AM53.6 °F53.6 °F100 %30.09 in7.0 miCalmClear
5:55 AM55.4 °F55.4 °F100 %30.09 in10.0 miCalmClear
6:15 AM55.4 °F55.4 °F100 %30.09 in10.0 miCalmClear
6:35 AM55.4 °F55.4 °F100 %30.09 in10.0 miCalmClear
6:55 AM55.4 °F55.4 °F100 %30.10 in10.0 miCalmClear
7:15 AM57.2 °F57.2 °F100 %30.10 in7.0 miCalmClear
7:35 AM60.8 °F60.8 °F100 %30.10 in7.0 miCalmClear
7:55 AM62.6 °F62.6 °F100 %30.10 in10.0 miNNE (20°)3.5 mphClear
8:15 AM64.4 °F62.6 °F94 %30.10 in10.0 miNorth (10°)8.1 mphClear
8:35 AM64.4 °F62.6 °F94 %30.10 in10.0 miNNE (20°)8.1 mphClear
8:55 AM68.0 °F60.8 °F78 %30.10 in10.0 miNNE (30°)6.9 mphClear
9:15 AM68.0 °F60.8 °F78 %30.10 in10.0 miNNE (30°)6.9 mphClear
9:35 AM69.8 °F60.8 °F73 %30.10 in10.0 miENE (60°)5.8 mphClear
9:55 AM69.8 °F60.8 °F73 %30.11 in10.0 miNNE (20°)9.2 mphClear
10:15 AM69.8 °F60.8 °F73 %30.11 in10.0 miNNE (20°)9.2 mphClear
10:35 AM71.6 °F62.6 °F73 %30.11 in10.0 miNNE (20°)6.9 mphClear
10:55 AM73.4 °F62.6 °F69 %30.11 in10.0 miNNE (20°)5.8 mphClear
11:15 AM73.4 °F60.8 °F65 %30.11 in10.0 miNNE (30°)3.5 mphClear
11:35 AM73.4 °F60.8 °F65 %30.10 in10.0 miNorth (10°)9.2 mphClear
11:55 AM75.2 °F60.8 °F61 %30.10 in10.0 miNE (40°)5.8 mphClear
12:15 PM75.2 °F60.8 °F61 %30.10 in10.0 miNorth (360°)3.5 mphClear
12:35 PM77.0 °F62.6 °F61 %30.09 in10.0 miENE (60°)5.8 mphClear
12:55 PM75.2 °F62.6 °F65 %30.09 in10.0 miNorth (10°)4.6 mphClear
1:15 PM77.0 °F62.6 °F61 %30.09 in10.0 miNE (40°)3.5 mphClear
1:35 PM77.0 °F64.4 °F65 %30.09 in10.0 miNorth (350°)3.5 mphClear
1:55 PM77.0 °F64.4 °F65 %30.09 in10.0 miNNE (20°)8.1 mphClear
2:15 PM78.8 °F64.4 °F61 %30.08 in10.0 miNE (50°)5.8 mphScattered Clouds
2:35 PM78.8 °F64.4 °F61 %30.08 in10.0 miCalmClear
2:55 PM78.8 °F62.6 °F57 %30.07 in10.0 miNNW (330°)9.2 mphClear
3:15 PM78.8 °F64.4 °F61 %30.07 in10.0 miNorth (360°)8.1 mphClear
3:35 PM78.8 °F60.8 °F54 %30.07 in10.0 miNorth (360°)10.4 mphClear
3:55 PM78.8 °F60.8 °F54 %30.07 in10.0 miNorth (360°)5.8 mphClear
4:15 PM78.8 °F60.8 °F54 %30.07 in10.0 miNorth (10°)9.2 mphClear
4:35 PM78.8 °F59.0 °F51 %30.07 in10.0 miNorth (10°)9.2 mphClear
4:55 PM78.8 °F62.6 °F57 %30.07 in10.0 miNNE (20°)10.4 mphClear
5:15 PM78.8 °F62.6 °F57 %30.07 in10.0 miNE (40°)6.9 mphClear
5:35 PM78.8 °F62.6 °F57 %30.07 in10.0 miNE (40°)5.8 mphClear
5:55 PM78.8 °F62.6 °F57 %30.07 in10.0 miNNE (30°)5.8 mphClear
6:15 PM77.0 °F62.6 °F61 %30.07 in10.0 miNNE (30°)4.6 mphClear
6:35 PM77.0 °F62.6 °F61 %30.07 in10.0 miCalmClear
6:55 PM75.2 °F62.6 °F65 %30.07 in10.0 miNE (40°)3.5 mphClear
7:15 PM73.4 °F62.6 °F69 %30.07 in10.0 miNE (50°)3.5 mphClear
7:35 PM71.6 °F62.6 °F73 %30.07 in10.0 miCalmClear
7:55 PM71.6 °F60.8 °F69 %30.07 in10.0 miCalmClear
8:15 PM69.8 °F62.6 °F78 %30.07 in10.0 miCalmClear
8:35 PM69.8 °F62.6 °F78 %30.07 in10.0 miCalmClear
8:55 PM69.8 °F62.6 °F78 %30.07 in10.0 miNNE (30°)3.5 mphClear
9:15 PM68.0 °F64.4 °F88 %30.07 in10.0 miNNE (30°)3.5 mphClear
9:35 PM68.0 °F64.4 °F88 %30.07 in10.0 miNNE (30°)4.6 mphClear
9:55 PM68.0 °F62.6 °F83 %30.07 in10.0 miNE (50°)3.5 mphClear
10:15 PM69.8 °F62.6 °F78 %30.07 in10.0 miNNE (20°)3.5 mphClear
10:35 PM68.0 °F62.6 °F83 %30.07 in10.0 miCalmClear
11:15 PM68.0 °F64.4 °F88 %30.08 in10.0 miNorth (360°)3.5 mphClear
11:35 PM68.0 °F64.4 °F88 %30.08 in10.0 miNNE (30°)3.5 mphClear
11:55 PM68.0 °F64.4 °F88 %30.08 in10.0 miNE (40°)4.6 mphClear
Hourly data recorded from K8A0, located miles away from Walnut Grove, Alabama







STORIES FROM OUR PARTNERS